SCP
0 0 0 0 0 0 0 0 0 0 0 0 0 0 0 0 0 0 0 0 1 2 3 3 3 3 3 3 3 2 2 2 2 2 1 1 1 1 1 1 1 1 1 1 1 1 1 0 0
0 0 0 0 0 0 0 0 0 0 0 0 0 0 0 0 0 0 0 1 1 2 3 3 3 3 3 3 3 3 2 2 2 2 1 1 1 1 1 1 1 1 1 1 1 1 1 0 0
0 0 0 0 0 0 0 0 0 0 0 0 0 0 0 0 0 0 1 1 2 2 3 3 3 3 3 3 3 3 2 2 2 1 1 1 1 1 1 1 1 1 1 1 1 1 0 0 0
0 0 0 0 0 0 0 0 0 0 0 0 0 0 0 0 0 1 1 1 2 2 2 3 3 3 3 3 3 3 2 2 2 2 2 2 2 2 1 1 1 1 1 1 1 1 1 0 0
0 0 0 0 0 0 0 0 0 0 0 0 0 0 0 1 1 1 2 2 2 2 3 3 3 3 3 3 3 3 3 2 2 2 2 2 2 2 1 1 1 1 1 1 1 1 1 1 0
0 0 0 0 0 0 0 0 0 0 0 0 0 0 0 1 2 2 2 2 2 2 3 3 3 3 3 3 3 3 3 2 2 2 2 2 2 1 1 1 1 1 1 1 1 1 1 1 1
0 0 0 0 0 0 0 0 0 0 0 0 0 0 1 2 3 3 3 3 3 3 3 3 3 3 3 3 3 3 3 3 2 2 2 2 2 1 1 1 1 1 1 1 1 1 1 1 1
0 0 0 0 0 0 0 0 0 0 0 0 0 0 1 2 3 3 3 3 3 3 3 3 4 4 4 3 3 3 3 3 2 2 2 2 1 1 1 1 1 1 1 1 1 1 1 1 1
0 0 0 0 0 0 0 0 0 0 0 0 0 0 1 3 4 4 3 3 3 3 3 3 4 5 4 4 3 3 3 3 2 2 2 2 1 1 1 1 1 1 1 1 1 1 1 1 1
0 0 0 0 0 0 0 0 0 0 0 0 0 0 1 3 4 4 3 3 3 3 3 3 4 5 5 5 4 3 3 3 3 2 2 2 1 1 1 1 1 1 1 1 1 1 1 0 0
0 0 0 0 0 0 0 0 0 0 0 0 0 1 2 4 5 4 3 3 3 2 2 3 4 5 6 6 5 4 3 3 3 2 2 2 1 1 1 0 0 0 0 0 1 1 0 0 0
0 0 0 0 0 0 0 0 0 0 0 0 0 1 2 4 4 4 3 3 3 2 2 2 3 5 6 6 6 5 4 3 3 2 2 2 1 1 1 0 0 0 0 0 0 0 0 0 0
0 0 0 0 0 0 0 0 0 0 0 0 0 1 2 3 4 3 3 3 2 2 2 2 3 4 6 6 6 6 5 3 3 2 2 2 1 1 1 1 0 0 0 0 0 1 1 1 0
0 0 0 0 0 0 0 0 0 0 0 0 0 0 1 2 2 2 2 2 2 1 1 1 2 3 5 6 7 6 5 4 3 2 2 2 1 1 1 1 1 1 0 0 0 1 1 1 1
0 0 0 0 0 0 0 0 0 0 0 0 0 0 0 1 1 1 1 1 1 1 1 1 1 3 4 5 6 6 6 5 4 3 2 2 2 1 1 1 1 1 1 0 0 0 1 1 1
0 0 0 0 0 0 0 0 0 0 0 0 0 0 0 0 0 0 1 1 1 1 1 1 1 2 3 4 5 6 6 6 5 3 2 2 2 2 1 1 1 1 1 1 0 0 0 0 0
0 0 0 0 0 0 0 0 0 0 0 0 0 0 0 0 0 0 0 1 1 1 1 1 1 1 2 3 4 5 5 6 5 4 3 2 2 2 1 1 1 1 1 1 1 0 0 0 0
0 0 0 0 0 0 0 0 0 0 0 0 0 0 0 0 0 0 0 1 1 1 1 1 1 1 1 2 3 4 5 5 5 4 3 2 2 2 1 1 1 1 1 1 1 0 0 0 0
0 0 0 0 0 0 0 0 0 0 0 0 0 0 0 0 0 0 0 0 0 0 0 0 1 1 1 1 2 3 4 5 5 4 3 2 2 2 2 1 1 1 1 1 1 0 0 0 0
0 0 0 0 0 0 0 0 0 0 0 0 0 0 0 0 0 0 0 0 0 0 0 0 1 1 1 1 1 2 3 5 5 4 3 2 2 2 2 2 1 1 1 1 0 0 0 0 0
0 0 0 0 0 0 0 0 0 0 0 0 0 0 0 0 0 0 0 0 0 0 0 0 0 1 1 1 1 2 3 4 4 4 3 2 2 2 2 2 1 1 1 1 0 0 0 0 0
0 0 0 0 0 0 0 0 0 0 0 0 0 0 0 0 0 0 0 0 0 0 0 0 0 0 1 1 1 1 2 3 3 3 3 2 2 1 1 1 1 1 1 1 0 0 0 0 0
0 0 0 0 0 0 0 0 0 0 0 0 0 0 0 0 0 0 0 0 0 0 0 0 0 0 1 1 1 1 1 2 3 3 3 2 2 2 1 1 1 1 1 1 0 0 0 0 0
0 0 0 0 0 0 0 0 0 0 0 0 0 0 0 0 0 0 0 0 0 0 0 0 0 0 0 1 1 1 1 1 2 2 2 2 2 2 1 1 1 1 1 1 0 0 0 0 0
0 0 0 0 0 0 0 0 0 0 0 0 0 0 0 0 0 0 0 0 0 0 0 0 0 0 0 1 1 1 1 1 1 2 2 2 3 2 1 1 1 1 1 1 0 0 0 0 0
0 0 0 0 0 0 0 0 0 0 0 0 0 0 0 0 0 0 0 0 0 0 0 0 0 0 0 1 1 1 1 1 1 1 1 2 2 2 1 1 1 1 1 1 0 0 0 0 0
0 0 0 0 0 0 0 0 0 0 0 0 0 0 0 0 0 0 0 0 0 0 0 0 0 0 0 1 1 1 1 0 0 1 1 1 1 1 1 1 1 1 0 0 0 0 0 0 0
0 0 0 0 0 0 0 0 0 0 0 0 0 0 0 0 0 0 0 0 0 0 0 0 0 0 0 0 1 1 1 0 0 0 0 1 1 1 1 1 1 1 0 0 0 0 0 0 0
0 0 0 0 0 0 0 0 0 0 0 0 0 0 0 0 0 0 0 0 0 0 0 0 0 0 0 0 0 1 0 0 0 0 0 0 0 0 1 1 1 1 0 0 0 0 0 0 0
0 0 0 0 0 0 0 0 0 0 0 0 0 0 0 0 0 0 0 0 0 0 0 0 0 0 0 0 0 1 0 0 0 0 0 0 0 0 0 1 1 0 0 0 0 0 0 0 0
Wind_Speed
3 2 2 4 6 4 4 5 3 2 3 1 1 4 7 6 5 4 1 5 7 7 7 9 12 12 12 12 12 12 12 12 12 12 12 12 11 11 11 10 10 11 11 11 11 10 11 11 11
1 1 4 5 5 2 6 5 5 5 3 2 2 3 3 1 0 3 3 4 7 8 7 8 11 12 12 12 12 12 12 11 11 11 11 11 11 10 10 10 10 10 10 10 10 10 10 10 10
0 2 4 4 4 6 5 4 5 2 2 2 2 2 2 2 2 4 3 7 7 7 6 8 12 12 12 12 11 11 11 11 11 10 10 10 10 10 10 10 10 10 9 10 9 9 9 10 9
2 4 4 3 5 6 5 2 2 1 1 1 3 2 0 0 2 3 6 8 8 6 5 8 12 13 12 11 11 11 11 10 10 10 9 9 9 9 9 9 9 9 9 9 9 9 9 9 9
3 4 3 2 6 5 4 3 2 2 2 1 4 3 0 3 2 6 8 8 8 6 5 7 11 12 12 11 11 10 10 10 9 9 8 8 9 9 9 9 8 8 8 8 8 8 8 8 8
4 4 3 5 6 4 3 3 2 2 2 2 4 4 1 1 4 6 7 7 7 7 6 6 10 11 11 11 11 10 10 9 9 9 8 8 8 8 8 8 8 8 8 7 7 7 7 7 7
4 4 5 5 4 4 3 2 3 3 3 4 5 5 1 1 3 6 7 6 6 6 6 5 5 7 10 10 10 10 9 9 9 8 8 8 8 8 8 8 7 7 7 7 7 6 6 6 6
4 4 3 4 4 4 2 1 1 4 3 2 4 7 5 5 6 7 7 6 6 5 5 5 5 5 5 6 9 9 9 8 8 8 8 8 7 6 7 6 6 6 6 6 6 6 5 6 5
3 3 5 6 6 4 1 1 1 1 3 1 1 2 2 9 9 9 7 5 5 5 4 4 5 4 5 5 6 7 7 7 7 6 7 6 3 3 4 5 6 6 6 6 6 5 5 5 5
4 5 8 4 4 2 1 1 1 2 1 1 1 2 5 9 10 10 9 9 8 7 5 4 5 5 4 4 4 3 4 4 4 3 4 3 3 3 4 4 5 5 5 5 5 5 5 4 2
5 6 4 3 2 1 1 0 0 4 2 4 5 5 7 8 9 10 9 8 7 6 5 4 4 5 5 3 3 2 2 2 3 3 3 3 3 2 2 2 2 2 3 2 3 3 2 2 1
4 3 3 2 1 1 1 1 0 2 4 2 3 7 9 10 11 10 10 8 6 6 5 5 5 4 4 4 3 3 2 2 2 2 3 3 2 2 2 1 1 1 1 1 2 1 2 2 1
4 2 2 2 1 1 1 1 1 3 3 1 3 6 8 9 7 5 5 6 6 6 5 5 5 5 4 4 3 3 3 3 3 2 2 3 3 2 2 1 1 1 1 1 1 1 1 1 1
5 3 2 1 2 1 2 2 1 4 1 1 4 5 6 7 6 5 5 6 6 6 6 5 5 5 5 4 3 3 2 2 2 2 2 3 3 2 2 1 1 1 1 1 1 1 1 0 0
2 2 2 2 2 2 1 4 5 4 1 2 3 3 4 5 5 6 7 7 7 6 5 5 5 5 5 5 4 3 2 3 2 2 2 3 2 3 2 2 1 1 1 1 1 1 1 1 1
3 3 4 3 3 3 4 8 4 2 4 4 3 3 3 4 5 5 5 5 5 5 5 4 4 5 5 4 4 2 2 3 2 2 2 3 3 3 2 2 1 1 1 1 1 1 1 0 0
3 5 5 3 3 3 5 7 4 1 3 4 4 4 4 4 4 4 5 5 5 6 6 5 4 5 5 5 3 3 2 2 2 2 2 2 3 3 3 2 1 1 1 1 1 0 1 0 1
7 5 4 5 3 3 5 7 5 3 3 5 5 4 5 5 7 5 5 5 4 4 5 5 4 4 5 4 3 2 2 1 1 1 2 2 2 3 2 2 1 2 1 1 1 1 0 0 1
4 5 4 4 2 3 6 8 7 5 3 5 5 6 6 7 5 3 4 4 4 4 5 5 5 4 5 4 3 3 2 1 1 1 2 2 2 2 2 2 2 2 2 2 2 1 0 0 0
4 4 3 2 1 2 4 8 7 6 6 7 7 7 7 6 3 3 3 4 5 6 5 5 5 5 5 4 3 2 2 2 1 1 1 1 2 2 2 2 2 2 1 1 2 1 1 0 0
5 6 5 3 2 2 2 7 5 4 3 3 4 5 5 7 7 5 5 5 5 5 6 6 5 5 4 4 4 3 3 2 1 0 0 0 1 2 2 2 2 2 2 2 2 2 3 1 0
7 5 5 3 2 2 1 4 6 4 3 4 5 4 4 5 5 5 5 6 6 6 5 5 5 4 4 5 5 5 4 3 3 2 1 0 1 1 1 2 2 2 2 2 2 2 2 2 1
4 3 3 3 2 1 1 3 8 2 4 5 4 4 4 4 4 5 6 7 6 5 4 4 4 4 4 4 5 5 3 2 2 2 2 1 1 1 1 1 2 2 2 2 2 2 1 1 2
5 5 4 3 2 4 6 5 7 4 5 4 3 3 3 2 2 2 3 4 3 3 3 4 4 3 3 4 4 4 4 4 3 2 2 1 0 0 0 1 1 2 2 2 2 2 2 2 2
4 6 2 0 2 6 3 5 8 4 3 3 3 3 2 1 1 2 3 4 4 4 4 4 5 4 3 4 4 4 4 4 4 3 3 2 1 1 1 1 1 1 1 1 2 2 2 2 2
5 7 7 6 6 3 2 6 7 2 2 2 1 1 2 2 1 2 2 4 4 4 4 4 4 4 3 3 3 3 3 3 2 2 2 3 2 2 1 1 1 1 1 1 1 1 1 1 1
5 4 3 4 2 1 4 4 6 2 3 3 3 4 4 3 2 2 2 3 4 4 4 4 4 3 3 3 3 3 3 2 2 1 1 1 1 1 1 1 1 1 1 1 1 1 0 1 1
3 5 4 4 5 4 3 3 3 2 2 3 3 3 3 3 3 3 2 2 3 3 3 3 3 3 3 3 2 2 2 2 2 2 1 1 1 1 1 1 1 1 1 1 1 1 0 1 0
3 2 3 3 3 4 3 4 2 2 1 0 1 2 3 3 3 2 2 2 3 4 4 4 3 4 3 2 2 3 2 2 3 2 2 1 1 1 1 1 1 1 1 1 1 1 0 1 1
2 3 4 4 3 2 2 4 2 1 0 1 2 3 3 3 3 3 3 4 4 4 4 3 3 3 2 2 3 3 3 3 3 3 2 2 2 1 1 1 1 0 0 1 1 1 0 1 1
Wind_Direction
356 28 68 59 59 57 235 237 216 221 213 214 152 143 151 158 167 187 142 139 134 139 147 143 135 131 128 126 123 120 116 112 110 109 108 107 106 104 102 100 96 92 89 88 90 89 87 86 84
5 58 58 65 100 179 252 233 216 214 185 131 82 98 106 157 163 121 139 150 138 139 142 141 134 131 128 126 125 123 119 116 113 111 110 109 108 107 105 101 97 94 91 89 91 91 91 90 86
47 57 89 91 148 194 225 218 212 225 202 155 97 71 134 163 161 167 166 145 131 135 139 140 134 131 129 128 127 123 120 120 118 116 114 113 111 109 106 102 99 95 92 91 90 91 93 91 88
86 56 63 107 214 224 226 229 179 157 132 112 128 100 95 8 187 162 135 135 129 130 132 139 135 134 132 130 128 124 122 121 121 121 118 116 114 111 105 101 98 97 95 93 91 91 92 92 90
66 87 101 206 236 245 243 242 186 162 161 125 133 137 62 349 87 122 131 134 135 130 128 139 136 136 134 132 129 126 124 122 121 119 117 116 114 112 107 102 99 98 98 97 94 93 93 92 90
74 85 139 214 239 258 257 227 185 171 158 142 137 134 219 22 118 131 131 129 132 130 123 133 135 134 132 130 129 127 125 121 119 117 114 114 113 111 108 103 99 98 98 98 96 94 93 94 93
125 134 188 204 231 252 245 193 175 173 179 193 158 131 216 164 139 126 120 116 117 122 121 125 132 132 130 128 126 124 122 120 117 113 109 104 102 105 107 103 100 98 98 96 94 93 91 94 95
139 133 183 210 211 236 248 180 171 169 191 165 147 151 192 188 139 116 110 109 113 119 122 124 121 123 126 125 122 120 118 116 113 110 106 100 96 97 98 96 97 97 96 93 90 88 87 85 87
110 129 205 209 200 227 230 149 2 58 115 104 165 182 186 136 132 124 122 123 132 132 126 129 125 120 120 122 121 118 115 112 108 105 103 97 88 89 92 88 91 93 92 90 88 85 82 74 71
137 195 218 212 202 213 212 174 216 94 69 76 55 47 106 134 146 150 155 159 161 162 155 142 136 131 124 123 118 115 111 112 106 104 105 99 91 84 83 82 84 86 85 85 83 78 73 66 57
175 205 214 225 226 197 174 240 281 140 202 211 189 167 146 152 159 165 170 169 170 168 163 158 148 138 131 124 122 115 110 110 105 109 110 105 95 85 78 81 72 74 77 74 70 65 61 64 66
188 225 211 224 211 169 176 152 17 204 224 237 201 164 161 167 175 178 177 174 166 166 171 162 155 143 136 130 129 130 128 126 123 125 122 118 111 100 98 95 88 80 78 83 70 70 66 61 62
211 231 225 250 261 235 185 222 230 256 273 311 130 150 169 178 183 181 172 168 167 172 178 171 160 153 147 136 137 134 139 143 145 140 138 133 133 137 129 121 111 101 93 104 92 81 70 47 29
206 210 247 255 235 243 208 266 227 256 251 106 140 167 180 187 182 168 169 175 180 180 179 175 168 162 150 147 146 148 149 146 140 145 148 147 147 149 146 142 140 143 146 135 125 123 113 39 12
154 173 280 254 209 219 144 277 234 239 176 176 195 196 193 201 189 188 187 185 184 179 173 178 173 161 156 156 157 150 154 149 145 153 152 150 150 154 156 156 167 186 162 130 98 88 79 53 7
124 154 225 247 188 187 162 250 255 230 169 208 220 220 216 220 212 206 192 186 180 171 171 176 171 163 162 158 157 152 151 148 149 152 155 158 158 158 155 162 186 173 144 139 136 126 103 339 295
163 196 212 248 201 169 184 240 261 247 177 218 230 228 227 234 237 219 200 189 182 178 173 168 162 164 165 158 150 143 143 145 148 145 153 165 165 163 160 173 178 151 140 144 157 112 161 229 289
197 192 198 210 217 171 209 243 268 277 211 231 240 238 230 228 234 221 203 193 181 175 168 163 157 161 152 139 127 120 118 134 134 148 163 166 170 166 160 164 155 141 139 149 169 170 168 218 249
174 173 200 226 220 186 227 252 262 262 242 244 244 239 233 235 241 217 198 181 165 164 163 165 160 164 154 147 149 150 167 165 151 168 167 169 164 157 154 156 154 157 168 182 184 162 135 324 29
176 192 208 265 259 199 250 267 262 246 231 226 228 230 230 232 235 214 189 172 173 175 173 170 171 171 172 169 158 151 146 148 148 147 151 161 153 156 157 159 166 171 169 170 181 157 141 354 79
205 194 194 196 7 7 325 295 270 261 241 240 237 231 227 218 217 206 189 188 181 182 182 180 178 173 171 154 125 108 88 75 84 106 172 175 155 156 157 164 168 173 172 189 199 185 170 182 262
224 197 178 167 135 273 158 275 282 268 277 260 253 243 236 232 218 206 193 189 192 195 183 175 170 166 161 152 149 151 156 169 190 181 182 158 136 150 160 167 172 178 185 193 206 195 190 168 194
191 156 154 162 157 276 226 221 278 294 263 262 256 249 244 235 215 205 197 192 189 180 169 164 154 153 153 154 156 154 155 164 147 134 132 126 108 124 159 169 167 179 191 199 195 189 191 183 187
136 94 69 55 90 245 214 190 270 243 235 268 282 276 261 248 220 197 183 162 154 145 140 141 139 140 143 146 147 154 158 153 144 148 155 165 171 175 209 184 179 187 191 198 199 191 187 198 192
128 124 116 161 221 240 192 192 247 251 248 245 261 283 280 246 162 139 139 140 139 138 141 139 140 138 138 140 146 157 160 159 166 172 175 176 181 216 232 214 204 201 203 199 188 183 195 196 193
183 159 166 184 203 250 185 221 249 270 300 292 268 26 31 35 67 117 145 148 146 145 142 137 140 138 136 138 143 141 144 150 163 171 175 186 196 209 214 203 201 198 184 176 166 161 189 181 193
153 186 158 128 115 201 240 271 294 12 15 25 41 48 37 32 49 82 108 124 135 141 146 145 140 126 128 134 128 127 134 135 143 154 161 174 187 179 143 159 164 152 136 134 130 127 189 169 201
140 143 120 139 162 215 248 247 247 316 346 15 37 44 31 30 42 55 78 105 117 126 115 103 106 108 105 105 118 122 122 121 123 116 120 124 127 114 111 113 118 108 108 111 117 116 170 149 241
101 120 136 142 167 170 211 256 231 233 274 65 37 41 39 34 35 49 60 77 92 90 91 88 85 86 86 91 96 98 100 109 112 109 108 104 82 93 104 114 119 126 123 127 129 151 178 188 259
136 153 144 158 204 183 175 261 344 338 2 99 66 46 39 41 38 48 59 65 70 73 76 80 80 83 85 92 91 88 86 89 90 87 84 92 90 83 91 89 92 88 103 130 152 198 235 227 254